SKA97 LFML-LFRB

Flight info

Callsign SKA97
Flight time 2h 16m
Altitude 34000
Route FJR DCT GAI DCT SECHE DCT UVELI DCT CNA/N0434F320 DCT MANAK UY110 TIRAV/N0434F340 UN490 TERPO UM616 KORER DCT ERCOZ
Aircraft A20N/M-SDE2E3FGHIRWXY/LB1

Departure

Time 2026-04-24 16:38
Airport Marseille Provence Airport (LFML)

Arrival

Time 2026-04-24 18:54
Airport Brest Bretagne airport (LFRB)
Time Latitude Longitude Altitude Speed Heading
2026-04-24 16:15 43.43817 5.22317 51 ft 0 kts 74°
2026-04-24 16:25 43.43816 5.22315 50 ft 0 kts 74°
2026-04-24 16:25 43.43816 5.22312 50 ft 0 kts 74°
2026-04-24 16:28 43.43808 5.22277 50 ft 2 kts 77°
2026-04-24 16:29 43.43808 5.22257 49 ft 2 kts 101°
2026-04-24 16:29 43.43813 5.22237 49 ft 2 kts 119°
2026-04-24 16:29 43.43834 5.22210 48 ft 2 kts 156°
2026-04-24 16:30 43.43843 5.22205 48 ft 0 kts 163°
2026-04-24 16:33 43.43844 5.22205 48 ft 0 kts 163°
2026-04-24 16:33 43.43842 5.22206 48 ft 1 kts 163°
2026-04-24 16:34 43.43811 5.22219 49 ft 7 kts 162°
2026-04-24 16:34 43.43749 5.22212 50 ft 12 kts 214°
2026-04-24 16:34 43.43671 5.22117 50 ft 17 kts 201°
2026-04-24 16:34 43.43554 5.22174 53 ft 19 kts 149°
2026-04-24 16:35 43.43428 5.22269 57 ft 21 kts 159°
2026-04-24 16:35 43.43293 5.22381 61 ft 24 kts 134°
2026-04-24 16:35 43.43169 5.22554 65 ft 27 kts 134°
2026-04-24 16:35 43.43041 5.22735 70 ft 25 kts 134°
2026-04-24 16:36 43.42923 5.22897 73 ft 22 kts 134°
2026-04-24 16:36 43.42823 5.22945 75 ft 7 kts 206°
2026-04-24 16:36 43.42811 5.22934 75 ft 0 kts 218°
2026-04-24 16:37 43.42805 5.22927 75 ft 5 kts 218°
2026-04-24 16:37 43.42764 5.22841 75 ft 15 kts 264°
2026-04-24 16:37 43.42828 5.22702 73 ft 20 kts 314°
2026-04-24 16:38 43.43071 5.22350 65 ft 90 kts 313°
2026-04-24 16:38 43.43679 5.21492 41 ft 159 kts 313°
2026-04-24 16:38 43.44569 5.20314 392 ft 186 kts 314°
2026-04-24 16:38 43.45533 5.19097 1058 ft 197 kts 315°
2026-04-24 16:39 43.46517 5.17765 1793 ft 199 kts 310°
2026-04-24 16:39 43.47334 5.16258 2433 ft 206 kts 294°
2026-04-24 16:39 43.47549 5.14269 2983 ft 218 kts 262°
2026-04-24 16:39 43.46956 5.12379 3656 ft 225 kts 231°
2026-04-24 16:40 43.45652 5.11150 4309 ft 234 kts 196°
2026-04-24 16:40 43.44094 5.10629 5217 ft 231 kts 193°
2026-04-24 16:40 43.42543 5.10096 6010 ft 233 kts 193°
2026-04-24 16:40 43.40975 5.09531 6783 ft 236 kts 194°
2026-04-24 16:41 43.39400 5.08916 7561 ft 238 kts 201°
2026-04-24 16:41 43.38014 5.07729 8291 ft 244 kts 224°
2026-04-24 16:41 43.36843 5.05950 8784 ft 260 kts 230°
2026-04-24 16:41 43.35658 5.03956 9265 ft 278 kts 231°
2026-04-24 16:42 43.34407 5.01849 9770 ft 293 kts 230°
2026-04-24 16:42 43.33099 4.99680 10488 ft 299 kts 230°
2026-04-24 16:42 43.31746 4.97462 10987 ft 313 kts 230°
2026-04-24 16:42 43.30299 4.95104 11368 ft 331 kts 230°
2026-04-24 16:43 43.28796 4.92615 11839 ft 345 kts 234°
2026-04-24 16:43 43.27741 4.89691 12491 ft 349 kts 256°
2026-04-24 16:43 43.27493 4.86432 13245 ft 349 kts 274°
2026-04-24 16:43 43.27678 4.83116 13978 ft 351 kts 277°
2026-04-24 16:44 43.27892 4.79766 14684 ft 355 kts 277°
2026-04-24 16:44 43.28106 4.76390 15395 ft 357 kts 279°
2026-04-24 16:44 43.28593 4.73113 16055 ft 358 kts 289°
2026-04-24 16:44 43.29506 4.69934 16725 ft 358 kts 298°
2026-04-24 16:45 43.30680 4.66906 17361 ft 361 kts 301°
2026-04-24 16:45 43.31892 4.63912 17895 ft 367 kts 301°
2026-04-24 16:45 43.33134 4.60845 18497 ft 371 kts 301°
2026-04-24 16:45 43.34395 4.57708 19107 ft 374 kts 300°
2026-04-24 16:46 43.35640 4.54588 19654 ft 378 kts 300°
2026-04-24 16:46 43.36910 4.51393 20220 ft 382 kts 300°
2026-04-24 16:46 43.38173 4.48207 20767 ft 386 kts 300°
2026-04-24 16:46 43.39462 4.44942 21280 ft 390 kts 300°
2026-04-24 16:47 43.40748 4.41655 21787 ft 394 kts 300°
2026-04-24 16:47 43.42039 4.38343 22296 ft 397 kts 300°
2026-04-24 16:47 43.43340 4.35003 22827 ft 400 kts 300°
2026-04-24 16:47 43.44659 4.31613 23339 ft 403 kts 300°
2026-04-24 16:48 43.45985 4.28198 23835 ft 406 kts 300°
2026-04-24 16:48 43.47307 4.24796 24360 ft 408 kts 300°
2026-04-24 16:48 43.48642 4.21352 24876 ft 409 kts 300°
2026-04-24 16:48 43.49973 4.17912 25348 ft 412 kts 300°
2026-04-24 16:49 43.51325 4.14414 25792 ft 414 kts 300°
2026-04-24 16:49 43.52666 4.10939 26242 ft 416 kts 300°
2026-04-24 16:49 43.54027 4.07406 26693 ft 417 kts 300°
2026-04-24 16:49 43.55383 4.03888 27118 ft 419 kts 300°
2026-04-24 16:50 43.56280 4.01501 27390 ft 421 kts 298°
2026-04-24 16:50 43.57822 3.96545 27905 ft 425 kts 292°
2026-04-24 16:50 43.58728 3.92699 28266 ft 428 kts 288°
2026-04-24 16:50 43.59361 3.89413 28650 ft 428 kts 287°
2026-04-24 16:51 43.60081 3.85510 29171 ft 426 kts 286°
2026-04-24 16:51 43.60806 3.81545 29701 ft 424 kts 286°
2026-04-24 16:51 43.61521 3.77616 30204 ft 422 kts 286°
2026-04-24 16:51 43.62231 3.73722 30677 ft 421 kts 286°
2026-04-24 16:52 43.62942 3.69815 31128 ft 420 kts 286°
2026-04-24 16:52 43.63647 3.65946 31545 ft 420 kts 286°
2026-04-24 16:52 43.64355 3.62051 31954 ft 419 kts 286°
2026-04-24 16:52 43.65060 3.58162 32349 ft 419 kts 286°
2026-04-24 16:53 43.65763 3.54279 32685 ft 419 kts 286°
2026-04-24 16:53 43.66469 3.50376 32976 ft 421 kts 286°
2026-04-24 16:53 43.67175 3.46466 33253 ft 422 kts 286°
2026-04-24 16:53 43.67880 3.42545 33537 ft 423 kts 286°
2026-04-24 16:54 43.68593 3.38578 33807 ft 424 kts 286°
2026-04-24 16:54 43.69301 3.34629 34063 ft 426 kts 285°
2026-04-24 16:54 43.70719 3.26694 34124 ft 427 kts 285°
2026-04-24 16:55 43.72129 3.18767 34125 ft 428 kts 285°
2026-04-24 16:55 43.73538 3.10803 34132 ft 428 kts 285°
2026-04-24 16:56 43.74947 3.02813 34130 ft 428 kts 285°
2026-04-24 16:56 43.76339 2.94886 34127 ft 427 kts 285°
2026-04-24 16:57 43.77738 2.86890 34127 ft 427 kts 284°
2026-04-24 16:57 43.79115 2.78979 34124 ft 426 kts 284°
2026-04-24 16:58 43.80488 2.71048 34119 ft 425 kts 284°
2026-04-24 16:58 43.81856 2.63110 34119 ft 425 kts 284°
2026-04-24 16:59 43.83214 2.55204 34113 ft 425 kts 284°
2026-04-24 17:00 43.85249 2.43283 34108 ft 425 kts 284°
2026-04-24 17:00 43.87283 2.31284 34100 ft 426 kts 283°
2026-04-24 17:01 43.89288 2.19364 34092 ft 425 kts 283°
2026-04-24 17:02 43.91282 2.07425 34083 ft 425 kts 283°
2026-04-24 17:02 43.92600 1.99485 34078 ft 426 kts 283°
2026-04-24 17:03 43.94667 1.87532 34076 ft 426 kts 286°
2026-04-24 17:04 43.96640 1.79771 34076 ft 427 kts 292°
2026-04-24 17:04 44.00588 1.68700 34075 ft 428 kts 297°
2026-04-24 17:05 44.03354 1.61383 34073 ft 428 kts 297°
2026-04-24 17:06 44.07478 1.50420 34064 ft 428 kts 297°
2026-04-24 17:06 44.11578 1.39462 34063 ft 428 kts 296°
2026-04-24 17:07 44.14300 1.32160 34058 ft 428 kts 296°
2026-04-24 17:08 44.19775 1.17411 34059 ft 429 kts 296°
2026-04-24 17:08 44.22510 1.10014 34055 ft 430 kts 296°
2026-04-24 17:09 44.27961 0.95219 34051 ft 429 kts 296°
2026-04-24 17:10 44.33374 0.80436 34051 ft 430 kts 295°
2026-04-24 17:12 44.45723 0.52031 34050 ft 435 kts 317°
2026-04-24 18:54 48.44344 -4.42221 317 ft 0 kts 156°